Location: Ashton River Estates
(39.1762°N, 77.0261°W)
Time: 20:23:55
(UTC+00:00)

NOSS 3-3 (C) - Pass Details

Date: 29 October 2020
Orbit: 827 x 1385 km, 63.5° (Epoch: 29 November)

Event Time Altitude Azimuth Distance (km) Brightness Sun altitude
Rises 23:23:33 0° 215° (SW) 3,380 7.5 -14.8°
Reaches altitude 10° 23:25:54 10° 217° (SW) 2,480 6.7 -15.2°
Maximum altitude 23:31:37 79° 304° (NW) 932 4.0 -16.3°
Drops below altitude 10° 23:38:03 10° 32° (NNE) 2,780 6.0 -17.6°
Enters shadow 23:38:42 - 32° (NNE) 3,022 6.2 -17.7°
